[[{"header":{"parameterUnit":"m.s-1","parameterCategory":1,"la1":30.2991,"la2":30.254,"lo1":-89.0895,"lo2":-89.0444,"dy":0.0017,"dx":0.0017,"nx":28,"ny":28,"refTime":"2024-06-19T09:00:00:Z","depth":0,"parameterNumber":2,"parameterNumberName":"U-component_of_WINDS"},"data":[0,0,0,0,0,0,0,0,0,0,0,0,0,0,0,0,0,0,0,0,0,0,0,0,0,0,0,0,0,0,0,0,0,0,0,0,0,0,0,0,0,0,0,0,0,0,0,0,0,0,0,0,0,0,0,0,0,0,-8.3768,-8.3768,0,-8.378,-8.378,-8.378,-8.3501,-8.3493,-8.3485,-8.3478,-8.3496,-8.3503,-8.3511,0,0,0,0,0,0,0,0,0,0,0,0,0,-8.3507,-8.3513,-8.3768,-8.3768,-8.3768,-8.378,-8.378,-8.378,-8.3502,-8.3493,-8.3484,-8.3475,-8.3493,-8.3502,-8.3511,0,0,0,0,0,0,0,0,0,0,0,0,0,-8.358,-8.3515,-8.3768,-8.3631,-8.3618,-8.378,-8.378,-8.378,-8.3504,-8.3492,-8.3481,-8.3471,-8.3491,-8.3501,-8.3512,-8.3807,0,0,-8.3547,-8.3552,0,0,0,0,0,0,0,0,-8.3576,-8.359,-8.3651,-8.364,-8.3627,-8.3627,-8.3694,-8.379,-8.3507,-8.3548,-8.3478,-8.3465,-8.3549,-8.3555,-8.3582,-8.3808,-8.3809,-8.3548,-8.3554,-8.3559,-8.3562,0,0,0,0,0,0,0,-8.3572,-8.3588,-8.3773,-8.3652,-8.3638,-8.3569,-8.3567,-8.3711,-8.3612,-8.3543,-8.3523,-8.3528,-8.354,-8.3572,-8.358,-8.3809,-8.3547,-8.3557,-8.3564,-8.3569,-8.4276,-8.4287,0,0,0,0,0,0,-8.3585,-8.3586,-8.3772,-8.3773,-8.3573,-8.3583,-8.3581,-8.3639,-8.3609,-8.3594,-8.3537,-8.3515,-8.3558,-8.3567,-8.358,-8.3921,-8.3559,-8.357,-8.3576,-8.4264,-8.4278,-8.4291,0,0,0,0,0,0,-8.358,-8.3604,-8.3772,-8.3674,-8.369,-8.36,-8.3667,-8.3645,-8.3675,-8.3605,-8.3586,-8.3588,-8.355,-8.3564,-8.3752,-8.3918,-8.3575,-8.3585,-8.425,-8.4268,-8.4285,-8.4609,0,0,0,0,0,0,-8.3574,-8.3604,-8.3715,-8.3678,-8.3696,-8.3944,-8.3677,-8.3653,-8.3695,-8.3665,-8.3647,-8.3633,-8.3542,-8.3737,-8.3763,-8.3927,-8.3594,-8.4234,-8.4258,-8.4279,-8.4583,-8.4636,-8.4681,0,0,0,0,0,-8.3566,-8.3807,-8.3722,-8.3746,-8.3832,-8.3954,-8.3964,-8.3853,-8.371,-8.382,-8.3774,-8.3634,-8.3896,-8.3758,-8.3786,-8.3956,-8.4223,-8.4251,-8.4278,-8.4561,-8.4626,-8.468,0,0,0,0,0,0,-8.3868,-8.38,-8.3705,-8.3941,-8.3956,-8.3907,-8.4043,-8.3925,-8.3982,-8.3952,-8.3813,-8.3811,-8.4022,-8.4007,-8.3855,-8.4239,-8.4034,-8.4068,-8.4241,-8.4301,-8.435,-8.4349,-8.3603,0,0,0,0,0,-8.3962,-8.4065,-8.4,-8.4216,-8.4227,-8.4135,-8.4184,-8.4096,-8.4106,-8.4111,-8.4079,-8.4095,-8.418,-8.424,-8.4315,-8.4579,-8.4571,-8.471,-8.4759,-8.48,-8.4831,-8.4968,-8.5029,-8.4381,-8.438,-8.438,0,0,-8.4158,-8.4133,-8.4207,-8.4276,-8.4276,-8.4387,-8.4142,-8.427,-8.4351,-8.4131,-8.4305,-8.4283,-8.4292,-8.4519,-8.4618,-8.4514,-8.5008,-8.4834,-8.4867,-8.4876,-8.5003,-8.5064,-8.5119,-8.4399,-8.4396,-8.4393,0,0,-8.457,-8.4563,-8.474,-8.4745,-8.4748,-8.4684,-8.4728,-8.4696,-8.4672,-8.4845,-8.4682,-8.4776,-8.4927,-8.4939,-8.4965,-8.5381,-8.5254,-8.541,-8.5667,-8.5802,-8.5853,-8.5898,-8.6046,-8.6101,-8.5441,-8.5442,-8.5442,0,-8.4814,-8.4973,-8.4847,-8.4985,-8.502,-8.4823,-8.5002,-8.5014,-8.5043,-8.5072,-8.4954,-8.5137,-8.5129,-8.5356,-8.5457,-8.5486,-8.553,-8.5412,-8.5856,-8.5899,-8.5939,-8.6079,-8.6135,-8.5461,-8.5459,-8.5457,-8.5455,0,-8.5271,-8.5384,-8.5527,-8.5557,-8.5608,-8.5767,-8.5665,-8.5732,-8.564,-8.559,-8.5768,-8.5751,-8.5818,-8.5865,-8.5778,-8.608,-8.6015,-8.588,-8.5671,-8.6022,-8.6151,-8.6203,-8.5488,-8.5481,-8.5475,-8.5471,0,0,-8.5876,-8.5833,-8.5888,-8.5898,-8.5886,-8.5971,-8.6121,-8.6184,-8.6244,-8.627,-8.6392,-8.6523,-8.6396,-8.6426,-8.6338,-8.6458,-8.6787,-8.6306,-8.6304,-8.6396,-8.7118,-8.722,-8.7284,-8.6702,-8.6712,-8.672,-8.7117,0,-8.6276,-8.6527,-8.6417,-8.6679,-8.6782,-8.6596,-8.6726,-8.6733,-8.669,-8.6771,-8.6722,-8.6817,-8.6643,-8.666,-8.677,-8.6724,-8.693,-8.6694,-8.6815,-8.6821,-8.6818,-8.7351,-8.746,-8.7836,-8.7167,-8.7175,-8.7181,0,-8.6777,-8.6821,-8.7094,-8.7061,-8.71,-8.7219,-8.7267,-8.7347,-8.7352,-8.7311,-8.7345,-8.7229,-8.7373,-8.7166,-8.7363,-8.7205,-8.7248,-8.7233,-8.7245,-8.7252,-8.7022,-8.7373,-8.7953,-8.801,-8.7259,-8.7253,-8.7247,0,-8.719,-8.7318,-8.7496,-8.7511,-8.7479,-8.7566,-8.7557,-8.755,-8.7595,-8.7638,-8.7665,-8.7727,-8.776,-8.781,-8.7714,-8.7572,-8.7925,-8.771,-8.7896,-8.7899,-8.7979,-8.7975,-8.8575,-8.8008,-8.8007,-8.8006,-8.8005,0,-8.7648,-8.7822,-8.7681,-8.7792,-8.798,-8.7853,-8.8044,-8.8014,-8.8009,-8.8111,-8.7955,-8.8054,-8.7921,-8.8008,-8.7934,-8.8108,-8.8125,-8.8096,-8.8075,-8.811,-8.8114,-8.8136,-8.8108,-8.8021,-8.8018,-8.8015,-8.8012,0,-8.8142,-8.8055,-8.8237,-8.819,-8.8182,-8.8324,-8.8284,-8.8384,-8.8329,-8.8459,-8.8483,-8.8397,-8.849,-8.8399,-8.8488,-8.8438,-8.8671,-8.8612,-8.867,-8.8653,-8.8844,-8.8827,-8.9478,-8.9557,-8.8941,-8.8947,-8.8952,0,-8.844,-8.8568,-8.8535,-8.859,-8.859,-8.8683,-8.8726,-8.8606,-8.8658,-8.8672,-8.8771,-8.8851,-8.8908,-8.9066,-8.9012,-8.9079,-8.902,-8.9243,-8.9029,-8.906,-8.9022,-8.9016,-8.9028,-8.9288,-8.9295,-8.9301,-8.9306,0,-8.8978,-8.8927,-8.8996,-8.905,-8.9107,-8.9144,-8.9169,-8.9224,-8.9099,-8.9167,-8.9259,-8.9303,-8.9392,-8.9473,-8.9523,-8.9514,-8.9391,-8.9373,-8.942,-8.9457,-8.9485,-8.9472,-8.8788,-8.9359,-8.9354,-8.935,-8.9347,-8.9345,-8.9381,-8.9486,-8.9479,-8.956,-8.9566,-8.9593,-8.9684,-8.9639,-8.9713,-8.9775,-8.9699,-8.9813,-8.9813,-8.9867,-8.9872,-8.996,-8.9865,-8.9933,-8.995,-8.9969,-8.9996,-8.9472,-8.9969,-8.9967,-8.9966,-8.9964,-8.9963,0,-8.991,-8.9895,-8.9971,-9.001,-9.0075,-8.995,-8.9971,-9.0033,-9.0135,-9.0144,-9.0203,-9.0309,-9.0386,-9.0338,-9.0404,-9.0484,-9.0429,-9.0505,-9.0498,-9.0498,-9.0077,-9.003,-9.0549,-9.0549,-9.0548,-9.0548,-9.0548,-9.0548,-9.0193,-9.0363,-9.0313,-9.0485,-9.0468,-9.0577,-9.0599,-9.0623,-9.063,-9.0754,-9.0817,-9.0784,-9.0771,-9.0834,-9.09,-9.0884,-9.0915,-9.1013,-9.0977,-9.0585,-9.0528,-9.0473,-9.0427,-9.1021,-9.1022,-9.1389,-9.1393,-9.1395]},{"header":{"parameterUnit":"m.s-1","parameterCategory":1,"la1":30.2991,"la2":30.254,"lo1":-89.0895,"lo2":-89.0444,"dy":0.0017,"dx":0.0017,"nx":28,"ny":28,"refTime":"2024-06-19T09:00:00:Z","depth":0,"parameterNumber":3,"parameterNumberName":"V-component_of_WINDS"},"data":[0,0,0,0,0,0,0,0,0,0,0,0,0,0,0,0,0,0,0,0,0,0,0,0,0,0,0,0,0,0,0,0,0,0,0,0,0,0,0,0,0,0,0,0,0,0,0,0,0,0,0,0,0,0,0,0,0,0,-1.8525,-1.8525,0,-1.855,-1.855,-1.855,-1.8605,-1.8606,-1.8607,-1.8608,-1.863,-1.863,-1.8629,0,0,0,0,0,0,0,0,0,0,0,0,0,-1.8522,-1.8521,-1.8525,-1.8525,-1.8526,-1.855,-1.855,-1.855,-1.8604,-1.8606,-1.8607,-1.8608,-1.863,-1.863,-1.8629,0,0,0,0,0,0,0,0,0,0,0,0,0,-1.8532,-1.8521,-1.8525,-1.8556,-1.8559,-1.855,-1.855,-1.8551,-1.8604,-1.8606,-1.8607,-1.8609,-1.8631,-1.863,-1.8629,-1.8592,0,0,-1.8627,-1.8627,0,0,0,0,0,0,0,0,-1.8532,-1.8532,-1.8551,-1.8553,-1.8557,-1.8576,-1.8557,-1.8564,-1.8604,-1.8587,-1.8608,-1.861,-1.8611,-1.8612,-1.8613,-1.8593,-1.8594,-1.8627,-1.8627,-1.8626,-1.8626,0,0,0,0,0,0,0,-1.8531,-1.8532,-1.8535,-1.8551,-1.8555,-1.8567,-1.857,-1.8559,-1.8589,-1.8588,-1.8592,-1.8595,-1.8613,-1.8613,-1.8613,-1.8594,-1.8627,-1.8627,-1.8626,-1.8626,-1.8543,-1.8541,0,0,0,0,0,0,-1.8526,-1.8531,-1.8534,-1.8536,-1.8548,-1.8566,-1.857,-1.8568,-1.8589,-1.8594,-1.8593,-1.8597,-1.8613,-1.8614,-1.8614,-1.857,-1.8626,-1.8626,-1.8625,-1.8544,-1.8542,-1.854,0,0,0,0,0,0,-1.8526,-1.8526,-1.8533,-1.8534,-1.8536,-1.8564,-1.8562,-1.8568,-1.8568,-1.8593,-1.8598,-1.8588,-1.8615,-1.8615,-1.8597,-1.8571,-1.8626,-1.8625,-1.8546,-1.8544,-1.8541,-1.8481,0,0,0,0,0,0,-1.8525,-1.8525,-1.8512,-1.8534,-1.8536,-1.8515,-1.856,-1.8567,-1.8567,-1.8573,-1.859,-1.8594,-1.8616,-1.8597,-1.8596,-1.8571,-1.8624,-1.8549,-1.8545,-1.8542,-1.8486,-1.8477,-1.8469,0,0,0,0,0,-1.8525,-1.8494,-1.8511,-1.8511,-1.852,-1.8514,-1.8515,-1.8542,-1.8565,-1.8551,-1.8567,-1.8594,-1.8575,-1.8595,-1.8594,-1.8569,-1.855,-1.8546,-1.8542,-1.8489,-1.8479,-1.847,0,0,0,0,0,0,-1.8468,-1.8497,-1.8517,-1.8492,-1.85,-1.8523,-1.8506,-1.853,-1.8531,-1.8536,-1.8568,-1.8572,-1.8548,-1.8557,-1.8579,-1.8533,-1.8567,-1.8562,-1.8527,-1.8517,-1.8509,-1.8506,-1.8624,0,0,0,0,0,-1.8453,-1.8446,-1.8472,-1.8448,-1.8451,-1.8478,-1.8476,-1.8496,-1.8506,-1.8509,-1.8524,-1.8531,-1.8527,-1.8523,-1.8521,-1.8488,-1.8491,-1.847,-1.8462,-1.8456,-1.845,-1.8432,-1.8422,-1.8527,-1.8527,-1.8527,0,0,-1.842,-1.8436,-1.8429,-1.8436,-1.8445,-1.8436,-1.848,-1.847,-1.8463,-1.8507,-1.849,-1.8501,-1.8511,-1.8485,-1.8474,-1.8492,-1.8422,-1.845,-1.8445,-1.8443,-1.8426,-1.8416,-1.8407,-1.8524,-1.8525,-1.8525,0,0,-1.8356,-1.8369,-1.8348,-1.8357,-1.837,-1.8388,-1.8383,-1.8403,-1.8412,-1.8395,-1.8428,-1.842,-1.8413,-1.8418,-1.842,-1.8358,-1.8381,-1.8357,-1.8313,-1.8294,-1.8286,-1.8279,-1.8254,-1.8245,-1.8352,-1.8352,-1.8352,0,-1.8314,-1.8303,-1.8335,-1.8322,-1.8323,-1.8364,-1.8343,-1.8349,-1.836,-1.8359,-1.838,-1.837,-1.838,-1.8355,-1.8339,-1.8341,-1.8334,-1.8353,-1.8285,-1.8278,-1.8272,-1.8248,-1.8239,-1.8348,-1.8349,-1.8349,-1.8349,0,-1.8249,-1.8241,-1.8223,-1.8233,-1.8233,-1.8216,-1.8244,-1.824,-1.826,-1.8275,-1.8257,-1.8271,-1.8271,-1.8267,-1.8287,-1.8244,-1.8254,-1.8279,-1.8314,-1.8258,-1.8236,-1.8228,-1.8344,-1.8345,-1.8346,-1.8347,0,0,-1.8147,-1.8176,-1.8169,-1.8173,-1.8191,-1.8184,-1.8169,-1.817,-1.8164,-1.8171,-1.8157,-1.815,-1.8173,-1.8175,-1.8196,-1.818,-1.8127,-1.8207,-1.8208,-1.8189,-1.8077,-1.8056,-1.8045,-1.8144,-1.8143,-1.8142,-1.8075,0,-1.8085,-1.8061,-1.8089,-1.8058,-1.8049,-1.8089,-1.8075,-1.8083,-1.8098,-1.8092,-1.8108,-1.8101,-1.8134,-1.8135,-1.8121,-1.8136,-1.8104,-1.8142,-1.8129,-1.8128,-1.8122,-1.8034,-1.8012,-1.7949,-1.8068,-1.8066,-1.8065,0,-1.8009,-1.8012,-1.798,-1.7999,-1.7996,-1.7983,-1.7986,-1.7981,-1.7991,-1.8003,-1.8005,-1.803,-1.8015,-1.8051,-1.8028,-1.8053,-1.805,-1.8057,-1.8055,-1.8052,-1.8091,-1.8026,-1.7929,-1.7918,-1.8053,-1.8054,-1.8055,0,-1.7934,-1.7931,-1.7911,-1.7914,-1.7936,-1.7925,-1.7934,-1.7946,-1.7945,-1.7947,-1.7946,-1.7946,-1.7945,-1.7944,-1.7968,-1.7993,-1.7942,-1.7981,-1.7949,-1.7948,-1.7934,-1.7934,-1.7832,-1.7937,-1.7937,-1.7937,-1.7938,0,-1.7859,-1.7837,-1.7877,-1.7864,-1.784,-1.7873,-1.7848,-1.7861,-1.7871,-1.7861,-1.7896,-1.7885,-1.7919,-1.7911,-1.793,-1.7907,-1.7907,-1.7915,-1.7919,-1.7909,-1.7908,-1.7905,-1.7909,-1.7935,-1.7935,-1.7936,-1.7936,0,-1.777,-1.7796,-1.7776,-1.78,-1.7805,-1.7786,-1.7805,-1.7793,-1.7811,-1.7797,-1.7795,-1.7822,-1.7815,-1.784,-1.7836,-1.7849,-1.7814,-1.7828,-1.7811,-1.7813,-1.7779,-1.778,-1.7669,-1.7655,-1.7772,-1.7771,-1.777,0,-1.7719,-1.7703,-1.7725,-1.772,-1.7727,-1.772,-1.7719,-1.7751,-1.7748,-1.7758,-1.7745,-1.7741,-1.7738,-1.7724,-1.7742,-1.774,-1.7751,-1.7713,-1.7751,-1.7741,-1.7747,-1.7746,-1.7743,-1.7703,-1.7702,-1.7701,-1.77,0,-1.7625,-1.7638,-1.7636,-1.7637,-1.7635,-1.7638,-1.7643,-1.7637,-1.7671,-1.7666,-1.7659,-1.7657,-1.7654,-1.7648,-1.765,-1.7657,-1.7682,-1.7688,-1.768,-1.7668,-1.7657,-1.7659,-1.7785,-1.769,-1.7691,-1.7691,-1.7692,-1.7692,-1.7551,-1.7538,-1.755,-1.7546,-1.7553,-1.7557,-1.7547,-1.7563,-1.7559,-1.7559,-1.7578,-1.7567,-1.7577,-1.7581,-1.7586,-1.7577,-1.7594,-1.7583,-1.758,-1.7576,-1.7568,-1.7662,-1.7577,-1.7578,-1.7578,-1.7578,-1.7579,0,-1.7455,-1.7466,-1.7462,-1.7467,-1.7463,-1.7491,-1.7498,-1.7492,-1.7482,-1.749,-1.7487,-1.7478,-1.7473,-1.7491,-1.7488,-1.7477,-1.7488,-1.7475,-1.7474,-1.7475,-1.7554,-1.756,-1.7465,-1.7465,-1.7465,-1.7465,-1.7465,-1.7465,-1.7405,-1.7383,-1.7399,-1.7381,-1.7392,-1.7381,-1.7382,-1.7385,-1.7392,-1.738,-1.7377,-1.7389,-1.74,-1.7398,-1.7394,-1.74,-1.7395,-1.7376,-1.7385,-1.7459,-1.7469,-1.748,-1.7485,-1.7376,-1.7376,-1.7306,-1.7306,-1.7305]}]]